Location: Franzen
(48.6167°N, 15.3833°E)
Time: 02:31:16
(UTC+00:00)

BREEZE M DEB (TANK) - Visible Passes

Search period start: 26 July 2021 00:00
Search period end: 05 August 2021 00:00
Orbit: 273 x 14482 km, 49.6° (Epoch: 25 July)

Date Brightness Start Highest point End Pass type
(mag) Time Alt. Az. Time Alt. Az. Time Alt. Az.
26 Jul 9.6 01:02:03 10° SE 02:03:24 23° ESE 02:32:42 10° ENE visible
28 Jul 9.3 01:41:06 10° SSE 03:11:53 39° ESE 03:43:44 10° ENE visible
29 Jul 9.6 00:29:18 10° SE 01:22:17 20° E 01:50:25 10° ENE visible
30 Jul 8.9 02:35:45 10° S 04:22:52 55° SE 04:51:41 10° ENE visible
31 Jul 9.3 01:02:59 10° SSE 02:29:37 35° ESE 03:02:54 10° ENE visible
31 Jul 9.6 23:58:37 10° ESE 00:41:17 17° E 01:06:49 10° ENE visible
02 Aug 9.0 01:54:08 10° S 03:39:50 51° SE 04:11:15 10° ENE visible
03 Aug 9.4 00:25:54 10° SE 01:47:20 32° ESE 02:21:35 10° ENE visible
03 Aug 9.6 23:31:07 10° ESE 00:00:26 13° E 00:20:49 10° ENE visible
04 Aug 8.6 02:56:34 10° SSW 04:51:47 67° SE 05:18:09 10° ENE visible
